Time,TemperatureF,DewpointF,PressureIn,WindDirection,WindDirectionDegrees,WindSpeedMPH,WindSpeedGustMPH,Humidity,HourlyPrecipIn,Conditions,Clouds,dailyrainin,SoftwareType,DateUTC
2013-05-24 00:01:00,50.1,30.7,29.65,East,101,1.0,1.0,47,0.00,,,0.00,WeatherCatV1.14B232,2013-05-24 06:01:00,
2013-05-24 00:06:00,50.0,32.1,29.65,ESE,111,1.0,1.0,50,0.00,,,0.00,WeatherCatV1.14B232,2013-05-24 06:06:00,
2013-05-24 00:11:00,49.5,33.1,29.65,SSE,167,2.0,2.0,53,0.00,,,0.00,WeatherCatV1.14B232,2013-05-24 06:11:00,
2013-05-24 00:16:00,49.0,33.1,29.64,East,82,1.0,3.0,54,0.00,,,0.00,WeatherCatV1.14B232,2013-05-24 06:16:00,
2013-05-24 00:21:00,48.8,32.0,29.65,ESE,115,0.0,3.0,52,0.00,,,0.00,WeatherCatV1.14B232,2013-05-24 06:21:00,
2013-05-24 00:26:00,48.7,32.3,29.64,ENE,77,0.0,2.0,53,0.00,,,0.00,WeatherCatV1.14B232,2013-05-24 06:26:00,
2013-05-24 00:31:00,49.0,32.6,29.65,ESE,109,1.0,3.0,53,0.00,,,0.00,WeatherCatV1.14B232,2013-05-24 06:31:00,
2013-05-24 00:36:00,49.4,32.0,29.65,SW,221,0.0,3.0,51,0.00,,,0.00,WeatherCatV1.14B232,2013-05-24 06:36:00,
2013-05-24 00:41:00,49.3,32.4,29.66,WSW,255,0.0,4.0,52,0.00,,,0.00,WeatherCatV1.14B232,2013-05-24 06:41:00,
2013-05-24 00:46:00,48.8,32.0,29.65,NE,42,3.0,4.0,52,0.00,,,0.00,WeatherCatV1.14B232,2013-05-24 06:46:00,
2013-05-24 00:51:00,48.9,31.6,29.66,North,0,1.0,2.0,51,0.00,,,0.00,WeatherCatV1.14B232,2013-05-24 06:51:00,
2013-05-24 00:55:00,49.1,31.8,29.66,South,185,0.0,1.0,51,0.00,,,0.00,WeatherCatV1.14B232,2013-05-24 06:55:00,
2013-05-24 01:00:00,48.8,31.0,29.66,West,277,1.0,1.0,50,0.00,,,0.00,WeatherCatV1.14B232,2013-05-24 07:00:00,
2013-05-24 01:05:00,48.6,30.8,29.66,SSW,205,2.0,2.0,50,0.00,,,0.00,WeatherCatV1.14B232,2013-05-24 07:05:00,
2013-05-24 01:10:00,48.8,31.0,29.66,SSW,212,1.0,1.0,50,0.00,,,0.00,WeatherCatV1.14B232,2013-05-24 07:10:00,
2013-05-24 01:15:00,48.6,30.8,29.66,WSW,252,0.0,1.0,50,0.00,,,0.00,WeatherCatV1.14B232,2013-05-24 07:15:00,
2013-05-24 01:20:00,47.9,32.1,29.66,SSW,210,2.0,4.0,54,0.00,,,0.00,WeatherCatV1.14B232,2013-05-24 07:20:00,
2013-05-24 01:25:00,47.7,31.4,29.66,East,81,0.0,2.0,53,0.00,,,0.00,WeatherCatV1.14B232,2013-05-24 07:25:00,
2013-05-24 01:30:00,48.3,31.5,29.66,SSW,200,4.0,4.0,52,0.00,,,0.00,WeatherCatV1.14B232,2013-05-24 07:30:00,
2013-05-24 01:35:00,48.5,29.7,29.66,SW,231,1.0,1.0,48,0.00,,,0.00,WeatherCatV1.14B232,2013-05-24 07:35:00,
2013-05-24 01:40:00,49.0,31.2,29.66,West,259,1.0,3.0,50,0.00,,,0.00,WeatherCatV1.14B232,2013-05-24 07:40:00,
2013-05-24 01:45:00,49.8,30.4,29.66,SE,129,0.0,0.0,47,0.00,,,0.00,WeatherCatV1.14B232,2013-05-24 07:45:00,
2013-05-24 01:50:00,50.1,30.1,29.66,WSW,240,3.0,3.0,46,0.00,,,0.00,WeatherCatV1.14B232,2013-05-24 07:50:00,
2013-05-24 01:55:00,49.6,29.1,29.67,WNW,297,0.0,2.0,45,0.00,,,0.00,WeatherCatV1.14B232,2013-05-24 07:55:00,
2013-05-24 02:00:00,49.5,29.6,29.66,NW,314,1.0,1.0,46,0.00,,,0.00,WeatherCatV1.14B232,2013-05-24 08:00:00,
2013-05-24 02:05:00,50.2,29.1,29.66,NE,41,3.0,3.0,44,0.00,,,0.00,WeatherCatV1.14B232,2013-05-24 08:05:00,
2013-05-24 02:10:00,50.9,31.4,29.67,East,84,0.0,2.0,47,0.00,,,0.00,WeatherCatV1.14B232,2013-05-24 08:10:00,
2013-05-24 02:15:00,50.4,31.5,29.66,WNW,288,1.0,1.0,48,0.00,,,0.00,WeatherCatV1.14B232,2013-05-24 08:15:00,
2013-05-24 02:20:00,49.5,32.1,29.67,SW,236,1.0,2.0,51,0.00,,,0.00,WeatherCatV1.14B232,2013-05-24 08:20:00,
2013-05-24 02:25:00,48.5,30.7,29.67,SSE,155,0.0,0.0,50,0.00,,,0.00,WeatherCatV1.14B232,2013-05-24 08:25:00,
2013-05-24 02:30:00,47.7,31.4,29.67,NNW,340,0.0,2.0,53,0.00,,,0.00,WeatherCatV1.14B232,2013-05-24 08:30:00,
2013-05-24 02:35:00,47.3,31.5,29.67,West,266,0.0,0.0,54,0.00,,,0.00,WeatherCatV1.14B232,2013-05-24 08:35:00,
2013-05-24 02:40:00,46.6,31.3,29.68,West,266,0.0,0.0,55,0.00,,,0.00,WeatherCatV1.14B232,2013-05-24 08:40:00,
2013-05-24 02:45:00,46.6,30.4,29.68,WNW,297,1.0,2.0,53,0.00,,,0.00,WeatherCatV1.14B232,2013-05-24 08:45:00,
2013-05-24 02:50:00,47.7,28.5,29.68,WNW,300,2.0,3.0,47,0.00,,,0.00,WeatherCatV1.14B232,2013-05-24 08:50:00,
2013-05-24 02:55:00,48.9,28.0,29.68,NE,44,1.0,1.0,44,0.00,,,0.00,WeatherCatV1.14B232,2013-05-24 08:55:00,
2013-05-24 03:00:00,49.0,29.7,29.68,WNW,285,0.0,0.0,47,0.00,,,0.00,WeatherCatV1.14B232,2013-05-24 09:00:00,
2013-05-24 03:05:00,48.3,30.0,29.68,SW,228,0.0,0.0,49,0.00,,,0.00,WeatherCatV1.14B232,2013-05-24 09:05:00,
2013-05-24 03:10:00,47.4,30.7,29.68,NE,42,3.0,3.0,52,0.00,,,0.00,WeatherCatV1.14B232,2013-05-24 09:10:00,
2013-05-24 03:15:00,47.0,30.3,29.68,North,349,0.0,1.0,52,0.00,,,0.00,WeatherCatV1.14B232,2013-05-24 09:15:00,
2013-05-24 03:20:00,48.4,28.0,29.69,North,354,3.0,4.0,45,0.00,,,0.00,WeatherCatV1.14B232,2013-05-24 09:20:00,
2013-05-24 03:25:00,49.4,27.9,29.69,NNE,19,1.0,2.0,43,0.00,,,0.00,WeatherCatV1.14B232,2013-05-24 09:25:00,
2013-05-24 03:30:00,49.9,28.3,29.69,North,5,1.0,3.0,43,0.00,,,0.00,WeatherCatV1.14B232,2013-05-24 09:30:00,
2013-05-24 03:35:00,49.8,26.5,29.69,NW,322,0.0,0.0,40,0.00,,,0.00,WeatherCatV1.14B232,2013-05-24 09:35:00,
2013-05-24 03:40:00,49.7,27.0,29.70,NW,310,1.0,1.0,41,0.00,,,0.00,WeatherCatV1.14B232,2013-05-24 09:40:00,
2013-05-24 03:45:00,50.1,27.3,29.70,NNW,332,1.0,3.0,41,0.00,,,0.00,WeatherCatV1.14B232,2013-05-24 09:45:00,
2013-05-24 03:50:00,50.0,26.6,29.70,NNW,347,1.0,2.0,40,0.00,,,0.00,WeatherCatV1.14B232,2013-05-24 09:50:00,
2013-05-24 03:55:00,50.4,27.0,29.70,NNW,347,0.0,0.0,40,0.00,,,0.00,WeatherCatV1.14B232,2013-05-24 09:55:00,
2013-05-24 04:00:00,49.8,28.2,29.71,NNW,347,0.0,1.0,43,0.00,,,0.00,WeatherCatV1.14B232,2013-05-24 10:00:00,
2013-05-24 04:05:00,48.6,26.6,29.71,West,281,0.0,0.0,42,0.00,,,0.00,WeatherCatV1.14B232,2013-05-24 10:05:00,
2013-05-24 04:10:00,47.6,27.9,29.71,SW,228,0.0,1.0,46,0.00,,,0.00,WeatherCatV1.14B232,2013-05-24 10:10:00,
2013-05-24 04:15:00,46.8,27.1,29.71,SW,228,0.0,0.0,46,0.00,,,0.00,WeatherCatV1.14B232,2013-05-24 10:15:00,
2013-05-24 04:20:00,46.2,28.1,29.72,NNW,330,2.0,2.0,49,0.00,,,0.00,WeatherCatV1.14B232,2013-05-24 10:20:00,
2013-05-24 04:25:00,45.6,28.0,29.72,NNE,19,0.0,1.0,50,0.00,,,0.00,WeatherCatV1.14B232,2013-05-24 10:25:00,
2013-05-24 04:30:00,45.3,27.3,29.72,NNW,343,0.0,1.0,49,0.00,,,0.00,WeatherCatV1.14B232,2013-05-24 10:30:00,
2013-05-24 04:35:00,45.0,30.3,29.72,SSE,156,0.0,2.0,56,0.00,,,0.00,WeatherCatV1.14B232,2013-05-24 10:35:00,
2013-05-24 04:40:00,44.2,31.2,29.73,South,190,1.0,2.0,60,0.00,,,0.00,WeatherCatV1.14B232,2013-05-24 10:40:00,
2013-05-24 04:45:00,43.5,30.5,29.72,West,264,1.0,3.0,60,0.00,,,0.00,WeatherCatV1.14B232,2013-05-24 10:45:00,
2013-05-24 04:50:00,43.3,30.8,29.72,East,87,1.0,1.0,61,0.00,,,0.00,WeatherCatV1.14B232,2013-05-24 10:50:00,
2013-05-24 04:55:00,43.2,29.4,29.73,SW,215,0.0,0.0,58,0.00,,,0.00,WeatherCatV1.14B232,2013-05-24 10:55:00,
2013-05-24 05:00:00,43.2,29.9,29.73,North,354,0.0,1.0,59,0.00,,,0.00,WeatherCatV1.14B232,2013-05-24 11:00:00,
2013-05-24 05:05:00,43.4,28.8,29.73,ENE,67,0.0,1.0,56,0.00,,,0.00,WeatherCatV1.14B232,2013-05-24 11:05:00,
2013-05-24 05:10:00,43.3,30.8,29.73,North,5,0.0,1.0,61,0.00,,,0.00,WeatherCatV1.14B232,2013-05-24 11:10:00,
2013-05-24 05:15:00,43.7,29.0,29.73,NNW,345,0.0,1.0,56,0.00,,,0.00,WeatherCatV1.14B232,2013-05-24 11:15:00,
2013-05-24 05:20:00,44.1,28.5,29.74,NW,311,1.0,1.0,54,0.00,,,0.00,WeatherCatV1.14B232,2013-05-24 11:20:00,
2013-05-24 05:25:00,44.6,29.4,29.74,SW,235,1.0,1.0,55,0.00,,,0.00,WeatherCatV1.14B232,2013-05-24 11:25:00,
2013-05-24 05:30:00,45.1,29.0,29.74,NNW,333,0.0,1.0,53,0.00,,,0.00,WeatherCatV1.14B232,2013-05-24 11:30:00,
2013-05-24 05:35:00,44.8,30.5,29.74,NNW,333,0.0,0.0,57,0.00,,,0.00,WeatherCatV1.14B232,2013-05-24 11:35:00,
2013-05-24 05:40:00,43.8,30.0,29.74,North,359,0.0,0.0,58,0.00,,,0.00,WeatherCatV1.14B232,2013-05-24 11:40:00,
2013-05-24 05:45:00,43.3,32.3,29.74,North,352,0.0,0.0,65,0.00,,,0.00,WeatherCatV1.14B232,2013-05-24 11:45:00,
2013-05-24 05:50:00,42.5,30.4,29.75,North,353,0.0,1.0,62,0.00,,,0.00,WeatherCatV1.14B232,2013-05-24 11:50:00,
2013-05-24 05:55:00,42.0,32.2,29.75,NNW,345,0.0,1.0,68,0.00,,,0.00,WeatherCatV1.14B232,2013-05-24 11:55:00,
2013-05-24 06:00:00,41.3,32.3,29.75,West,262,0.0,1.0,70,0.00,,,0.00,WeatherCatV1.14B232,2013-05-24 12:00:00,
2013-05-24 06:05:00,40.6,31.9,29.75,West,262,0.0,0.0,71,0.00,,,0.00,WeatherCatV1.14B232,2013-05-24 12:05:00,
2013-05-24 06:10:00,40.3,31.0,29.76,WNW,294,0.0,0.0,69,0.00,,,0.00,WeatherCatV1.14B232,2013-05-24 12:10:00,
2013-05-24 06:15:00,40.3,31.0,29.76,East,89,1.0,1.0,69,0.00,,,0.00,WeatherCatV1.14B232,2013-05-24 12:15:00,
2013-05-24 06:20:00,40.9,32.2,29.76,SE,139,1.0,3.0,71,0.00,,,0.00,WeatherCatV1.14B232,2013-05-24 12:20:00,
2013-05-24 06:25:00,41.5,31.4,29.76,WSW,252,1.0,2.0,67,0.00,,,0.00,WeatherCatV1.14B232,2013-05-24 12:25:00,
2013-05-24 06:30:00,42.3,31.0,29.76,WSW,239,0.0,1.0,64,0.00,,,0.00,WeatherCatV1.14B232,2013-05-24 12:30:00,
2013-05-24 06:35:00,43.3,32.3,29.77,ESE,112,0.0,0.0,65,0.00,,,0.00,WeatherCatV1.14B232,2013-05-24 12:35:00,
2013-05-24 06:40:00,44.4,31.4,29.77,ESE,112,0.0,1.0,60,0.00,,,0.00,WeatherCatV1.14B232,2013-05-24 12:40:00,
2013-05-24 06:45:00,45.7,31.3,29.77,NNW,345,2.0,2.0,57,0.00,,,0.00,WeatherCatV1.14B232,2013-05-24 12:45:00,
2013-05-24 06:50:00,47.5,30.3,29.77,WNW,288,2.0,3.0,51,0.00,,,0.00,WeatherCatV1.14B232,2013-05-24 12:50:00,
2013-05-24 06:55:00,49.2,29.8,29.77,NW,304,1.0,2.0,47,0.00,,,0.00,WeatherCatV1.14B232,2013-05-24 12:55:00,
2013-05-24 07:00:00,50.1,30.1,29.78,NW,311,0.0,0.0,46,0.00,,,0.00,WeatherCatV1.14B232,2013-05-24 13:00:00,
2013-05-24 07:05:00,50.9,30.3,29.77,NW,322,0.0,2.0,45,0.00,,,0.00,WeatherCatV1.14B232,2013-05-24 13:05:00,
2013-05-24 07:10:00,51.8,31.7,29.78,NNE,25,1.0,1.0,46,0.00,,,0.00,WeatherCatV1.14B232,2013-05-24 13:10:00,
2013-05-24 07:15:00,52.5,30.7,29.77,NNW,330,1.0,2.0,43,0.00,,,0.00,WeatherCatV1.14B232,2013-05-24 13:15:00,
2013-05-24 07:20:00,53.3,31.4,29.78,North,352,2.0,4.0,43,0.00,,,0.00,WeatherCatV1.14B232,2013-05-24 13:20:00,
2013-05-24 07:25:00,53.7,30.6,29.77,NNW,342,0.0,2.0,41,0.00,,,0.00,WeatherCatV1.14B232,2013-05-24 13:25:00,
2013-05-24 07:30:00,54.4,31.2,29.77,NNW,340,1.0,3.0,41,0.00,,,0.00,WeatherCatV1.14B232,2013-05-24 13:30:00,
2013-05-24 07:35:00,55.2,30.7,29.77,NNW,345,2.0,3.0,39,0.00,,,0.00,WeatherCatV1.14B232,2013-05-24 13:35:00,
2013-05-24 07:40:00,56.0,31.4,29.77,NW,314,2.0,2.0,39,0.00,,,0.00,WeatherCatV1.14B232,2013-05-24 13:40:00,
2013-05-24 07:45:00,56.9,32.8,29.77,West,276,0.0,1.0,40,0.00,,,0.00,WeatherCatV1.14B232,2013-05-24 13:45:00,
2013-05-24 07:50:00,57.8,31.0,29.77,NW,316,3.0,3.0,36,0.00,,,0.00,WeatherCatV1.14B232,2013-05-24 13:50:00,
2013-05-24 07:55:00,58.8,30.5,29.77,NW,312,2.0,2.0,34,0.00,,,0.00,WeatherCatV1.14B232,2013-05-24 13:55:00,
2013-05-24 08:00:00,59.7,29.8,29.77,NNW,340,2.0,5.0,32,0.00,,,0.00,WeatherCatV1.14B232,2013-05-24 14:00:00,
2013-05-24 08:05:00,60.7,31.4,29.77,WNW,285,1.0,2.0,33,0.00,,,0.00,WeatherCatV1.14B232,2013-05-24 14:05:00,
2013-05-24 08:10:00,61.6,31.5,29.77,WSW,237,1.0,4.0,32,0.00,,,0.00,WeatherCatV1.14B232,2013-05-24 14:10:00,
2013-05-24 08:15:00,62.4,30.6,29.77,North,352,2.0,4.0,30,0.00,,,0.00,WeatherCatV1.14B232,2013-05-24 14:15:00,
2013-05-24 08:20:00,62.8,32.5,29.77,NNW,338,2.0,4.0,32,0.00,,,0.00,WeatherCatV1.14B232,2013-05-24 14:20:00,
2013-05-24 08:25:00,63.5,33.9,29.77,NE,49,0.0,1.0,33,0.00,,,0.00,WeatherCatV1.14B232,2013-05-24 14:25:00,
2013-05-24 08:30:00,64.5,33.2,29.77,NNW,342,2.0,2.0,31,0.00,,,0.00,WeatherCatV1.14B232,2013-05-24 14:30:00,
2013-05-24 08:35:00,65.1,32.9,29.77,NE,34,5.0,5.0,30,0.00,,,0.00,WeatherCatV1.14B232,2013-05-24 14:35:00,
2013-05-24 08:40:00,64.9,32.7,29.76,WNW,298,0.0,3.0,30,0.00,,,0.00,WeatherCatV1.14B232,2013-05-24 14:40:00,
2013-05-24 08:45:00,65.9,30.0,29.76,NNE,15,3.0,6.0,26,0.00,,,0.00,WeatherCatV1.14B232,2013-05-24 14:45:00,
2013-05-24 08:50:00,66.5,29.6,29.76,East,84,4.0,5.0,25,0.00,,,0.00,WeatherCatV1.14B232,2013-05-24 14:50:00,
2013-05-24 08:55:00,67.9,28.7,29.76,SE,146,2.0,4.0,23,0.00,,,0.00,WeatherCatV1.14B232,2013-05-24 14:55:00,
2013-05-24 09:00:00,69.2,26.4,29.76,SW,221,2.0,4.0,20,0.00,,,0.00,WeatherCatV1.14B232,2013-05-24 15:00:00,
2013-05-24 09:05:00,69.9,24.5,29.76,SSE,154,1.0,6.0,18,0.00,,,0.00,WeatherCatV1.14B232,2013-05-24 15:05:00,
2013-05-24 09:10:00,70.1,24.6,29.76,SE,129,2.0,9.0,18,0.00,,,0.00,WeatherCatV1.14B232,2013-05-24 15:10:00,
2013-05-24 09:15:00,70.0,24.5,29.76,South,176,3.0,7.0,18,0.00,,,0.00,WeatherCatV1.14B232,2013-05-24 15:15:00,
2013-05-24 09:20:00,70.3,24.8,29.76,South,179,4.0,7.0,18,0.00,,,0.00,WeatherCatV1.14B232,2013-05-24 15:20:00,
2013-05-24 09:25:00,70.3,26.1,29.76,SSW,198,3.0,9.0,19,0.00,,,0.00,WeatherCatV1.14B232,2013-05-24 15:25:00,
2013-05-24 09:30:00,70.5,26.3,29.76,ENE,65,3.0,6.0,19,0.00,,,0.00,WeatherCatV1.14B232,2013-05-24 15:30:00,
2013-05-24 09:35:00,71.1,26.7,29.76,SSW,193,4.0,4.0,19,0.00,,,0.00,WeatherCatV1.14B232,2013-05-24 15:35:00,
2013-05-24 09:40:00,71.2,25.5,29.75,SE,130,3.0,8.0,18,0.00,,,0.00,WeatherCatV1.14B232,2013-05-24 15:40:00,
2013-05-24 09:45:00,71.3,25.6,29.75,West,269,2.0,7.0,18,0.00,,,0.00,WeatherCatV1.14B232,2013-05-24 15:45:00,
2013-05-24 09:50:00,71.0,24.0,29.75,SW,236,1.0,9.0,17,0.00,,,0.00,WeatherCatV1.14B232,2013-05-24 15:50:00,
2013-05-24 09:55:00,70.8,23.8,29.75,South,188,10.0,13.0,17,0.00,,,0.00,WeatherCatV1.14B232,2013-05-24 15:55:00,
2013-05-24 10:00:00,70.5,26.3,29.75,SE,139,6.0,7.0,19,0.00,,,0.00,WeatherCatV1.14B232,2013-05-24 16:00:00,
2013-05-24 10:04:00,70.8,25.2,29.75,SW,231,7.0,15.0,18,0.00,,,0.00,WeatherCatV1.14B232,2013-05-24 16:04:00,
2013-05-24 10:09:00,71.0,24.0,29.75,South,184,4.0,12.0,17,0.00,,,0.00,WeatherCatV1.14B232,2013-05-24 16:09:00,
2013-05-24 10:14:00,70.7,23.8,29.75,WSW,238,7.0,14.0,17,0.00,,,0.00,WeatherCatV1.14B232,2013-05-24 16:14:00,
2013-05-24 10:19:00,70.5,22.2,29.75,SW,214,9.0,16.0,16,0.00,,,0.00,WeatherCatV1.14B232,2013-05-24 16:19:00,
2013-05-24 10:24:00,70.6,22.2,29.75,SSW,211,4.0,24.0,16,0.00,,,0.00,WeatherCatV1.14B232,2013-05-24 16:24:00,
2013-05-24 10:29:00,70.5,22.2,29.74,South,171,13.0,20.0,16,0.00,,,0.00,WeatherCatV1.14B232,2013-05-24 16:29:00,
2013-05-24 10:34:00,70.8,22.4,29.74,SSE,158,4.0,16.0,16,0.00,,,0.00,WeatherCatV1.14B232,2013-05-24 16:34:00,
2013-05-24 10:39:00,71.1,22.6,29.74,SSE,165,6.0,14.0,16,0.00,,,0.00,WeatherCatV1.14B232,2013-05-24 16:39:00,
2013-05-24 10:44:00,71.1,22.6,29.76,SW,229,18.0,18.0,16,0.00,,,0.00,WeatherCatV1.14B232,2013-05-24 16:44:00,
2013-05-24 10:49:00,71.3,22.8,29.74,SSE,164,5.0,8.0,16,0.00,,,0.00,WeatherCatV1.14B232,2013-05-24 16:49:00,
2013-05-24 10:54:00,71.6,19.9,29.75,SW,219,12.0,18.0,14,0.00,,,0.00,WeatherCatV1.14B232,2013-05-24 16:54:00,
2013-05-24 10:59:00,71.8,21.7,29.75,South,174,5.0,11.0,15,0.00,,,0.00,WeatherCatV1.14B232,2013-05-24 16:59:00,
2013-05-24 11:04:00,71.7,21.6,29.75,SSW,207,9.0,17.0,15,0.00,,,0.00,WeatherCatV1.14B232,2013-05-24 17:04:00,
2013-05-24 11:09:00,71.9,21.7,29.74,ESE,119,9.0,23.0,15,0.00,,,0.00,WeatherCatV1.14B232,2013-05-24 17:09:00,
2013-05-24 11:14:00,71.8,21.7,29.75,SSE,165,10.0,16.0,15,0.00,,,0.00,WeatherCatV1.14B232,2013-05-24 17:14:00,
2013-05-24 11:19:00,72.3,22.1,29.74,SSW,195,10.0,14.0,15,0.00,,,0.00,WeatherCatV1.14B232,2013-05-24 17:19:00,
2013-05-24 11:24:00,72.7,22.4,29.74,ESE,102,4.0,12.0,15,0.00,,,0.00,WeatherCatV1.14B232,2013-05-24 17:24:00,
2013-05-24 11:29:00,72.8,22.5,29.74,South,187,4.0,12.0,15,0.00,,,0.00,WeatherCatV1.14B232,2013-05-24 17:29:00,
2013-05-24 11:34:00,73.1,21.1,29.74,West,277,3.0,10.0,14,0.00,,,0.00,WeatherCatV1.14B232,2013-05-24 17:34:00,
2013-05-24 11:39:00,73.6,21.5,29.75,SW,225,4.0,13.0,14,0.00,,,0.00,WeatherCatV1.14B232,2013-05-24 17:39:00,
2013-05-24 11:44:00,73.5,21.4,29.75,WSW,255,7.0,9.0,14,0.00,,,0.00,WeatherCatV1.14B232,2013-05-24 17:44:00,
2013-05-24 11:49:00,73.3,21.2,29.74,SSE,162,3.0,12.0,14,0.00,,,0.00,WeatherCatV1.14B232,2013-05-24 17:49:00,
2013-05-24 11:54:00,73.7,19.8,29.74,SSW,194,3.0,12.0,13,0.00,,,0.00,WeatherCatV1.14B232,2013-05-24 17:54:00,
2013-05-24 11:59:00,74.5,23.8,29.74,SE,131,11.0,16.0,15,0.00,,,0.00,WeatherCatV1.14B232,2013-05-24 17:59:00,
2013-05-24 12:04:00,74.0,21.8,29.75,SW,228,10.0,15.0,14,0.00,,,0.00,WeatherCatV1.14B232,2013-05-24 18:04:00,
2013-05-24 12:09:00,73.5,21.4,29.74,SW,221,3.0,19.0,14,0.00,,,0.00,WeatherCatV1.14B232,2013-05-24 18:09:00,
2013-05-24 12:14:00,74.2,25.1,29.74,SE,136,2.0,15.0,16,0.00,,,0.00,WeatherCatV1.14B232,2013-05-24 18:14:00,
2013-05-24 12:19:00,74.3,22.0,29.74,SSW,201,4.0,8.0,14,0.00,,,0.00,WeatherCatV1.14B232,2013-05-24 18:19:00,
2013-05-24 12:24:00,74.9,20.7,29.74,SE,139,3.0,15.0,13,0.00,,,0.00,WeatherCatV1.14B232,2013-05-24 18:24:00,
2013-05-24 12:29:00,75.3,22.8,29.74,SW,229,6.0,13.0,14,0.00,,,0.00,WeatherCatV1.14B232,2013-05-24 18:29:00,
2013-05-24 12:34:00,74.7,22.3,29.73,West,264,9.0,22.0,14,0.00,,,0.00,WeatherCatV1.14B232,2013-05-24 18:34:00,
2013-05-24 12:39:00,74.4,22.1,29.73,SSE,168,9.0,17.0,14,0.00,,,0.00,WeatherCatV1.14B232,2013-05-24 18:39:00,
2013-05-24 12:44:00,74.6,22.3,29.73,SE,129,9.0,13.0,14,0.00,,,0.00,WeatherCatV1.14B232,2013-05-24 18:44:00,
2013-05-24 12:49:00,74.5,23.8,29.74,SW,232,12.0,16.0,15,0.00,,,0.00,WeatherCatV1.14B232,2013-05-24 18:49:00,
2013-05-24 12:54:00,74.3,20.3,29.74,SSE,154,12.0,17.0,13,0.00,,,0.00,WeatherCatV1.14B232,2013-05-24 18:54:00,
2013-05-24 12:59:00,74.4,23.7,29.74,ESE,109,7.0,16.0,15,0.00,,,0.00,WeatherCatV1.14B232,2013-05-24 18:59:00,
2013-05-24 13:04:00,75.0,22.6,29.74,SSW,207,2.0,10.0,14,0.00,,,0.00,WeatherCatV1.14B232,2013-05-24 19:04:00,
2013-05-24 13:09:00,75.6,23.0,29.73,West,266,6.0,12.0,14,0.00,,,0.00,WeatherCatV1.14B232,2013-05-24 19:09:00,
2013-05-24 13:14:00,75.1,22.7,29.73,SW,233,11.0,17.0,14,0.00,,,0.00,WeatherCatV1.14B232,2013-05-24 19:14:00,
2013-05-24 13:19:00,74.9,22.5,29.73,WSW,243,6.0,16.0,14,0.00,,,0.00,WeatherCatV1.14B232,2013-05-24 19:19:00,
2013-05-24 13:24:00,75.2,22.7,29.73,WSW,254,4.0,18.0,14,0.00,,,0.00,WeatherCatV1.14B232,2013-05-24 19:24:00,
2013-05-24 13:29:00,75.6,23.0,29.73,SW,215,15.0,15.0,14,0.00,,,0.00,WeatherCatV1.14B232,2013-05-24 19:29:00,
2013-05-24 13:34:00,75.6,21.3,29.73,SW,225,11.0,23.0,13,0.00,,,0.00,WeatherCatV1.14B232,2013-05-24 19:34:00,
2013-05-24 13:39:00,75.5,23.0,29.73,SSW,195,8.0,15.0,14,0.00,,,0.00,WeatherCatV1.14B232,2013-05-24 19:39:00,
2013-05-24 13:44:00,75.6,23.0,29.73,South,190,8.0,16.0,14,0.00,,,0.00,WeatherCatV1.14B232,2013-05-24 19:44:00,
2013-05-24 13:49:00,75.5,23.0,29.72,WNW,287,5.0,15.0,14,0.00,,,0.00,WeatherCatV1.14B232,2013-05-24 19:49:00,
2013-05-24 13:54:00,75.9,23.3,29.72,South,170,7.0,16.0,14,0.00,,,0.00,WeatherCatV1.14B232,2013-05-24 19:54:00,
2013-05-24 13:59:00,76.2,23.5,29.72,SSE,154,6.0,11.0,14,0.00,,,0.00,WeatherCatV1.14B232,2013-05-24 19:59:00,
2013-05-24 14:04:00,76.4,20.0,29.72,WSW,250,12.0,25.0,12,0.00,,,0.00,WeatherCatV1.14B232,2013-05-24 20:04:00,
2013-05-24 14:09:00,76.0,23.4,29.72,ESE,115,8.0,17.0,14,0.00,,,0.00,WeatherCatV1.14B232,2013-05-24 20:09:00,
2013-05-24 14:14:00,75.6,21.3,29.72,WSW,246,6.0,19.0,13,0.00,,,0.00,WeatherCatV1.14B232,2013-05-24 20:14:00,
2013-05-24 14:19:00,75.8,21.5,29.71,South,171,5.0,15.0,13,0.00,,,0.00,WeatherCatV1.14B232,2013-05-24 20:19:00,
2013-05-24 14:24:00,76.0,21.6,29.72,South,187,9.0,14.0,13,0.00,,,0.00,WeatherCatV1.14B232,2013-05-24 20:24:00,
2013-05-24 14:29:00,76.4,23.7,29.71,SSW,193,8.0,15.0,14,0.00,,,0.00,WeatherCatV1.14B232,2013-05-24 20:29:00,
2013-05-24 14:34:00,76.2,21.8,29.71,SE,136,12.0,16.0,13,0.00,,,0.00,WeatherCatV1.14B232,2013-05-24 20:34:00,
2013-05-24 14:39:00,76.4,23.7,29.71,West,263,4.0,22.0,14,0.00,,,0.00,WeatherCatV1.14B232,2013-05-24 20:39:00,
2013-05-24 14:44:00,76.6,22.1,29.71,SW,235,4.0,13.0,13,0.00,,,0.00,WeatherCatV1.14B232,2013-05-24 20:44:00,
2013-05-24 14:49:00,76.5,23.8,29.71,SSW,211,3.0,12.0,14,0.00,,,0.00,WeatherCatV1.14B232,2013-05-24 20:49:00,
2013-05-24 14:54:00,76.6,23.8,29.70,South,174,10.0,11.0,14,0.00,,,0.00,WeatherCatV1.14B232,2013-05-24 20:54:00,
2013-05-24 14:59:00,76.6,22.1,29.71,WSW,240,5.0,10.0,13,0.00,,,0.00,WeatherCatV1.14B232,2013-05-24 20:59:00,
2013-05-24 15:04:00,76.6,27.0,29.70,SW,236,4.0,9.0,16,0.00,,,0.00,WeatherCatV1.14B232,2013-05-24 21:04:00,
2013-05-24 15:09:00,76.8,24.0,29.70,SSE,162,8.0,12.0,14,0.00,,,0.00,WeatherCatV1.14B232,2013-05-24 21:09:00,
2013-05-24 15:14:00,77.1,24.2,29.70,ESE,122,6.0,11.0,14,0.00,,,0.00,WeatherCatV1.14B232,2013-05-24 21:14:00,
2013-05-24 15:19:00,77.3,22.6,29.70,West,269,10.0,18.0,13,0.00,,,0.00,WeatherCatV1.14B232,2013-05-24 21:19:00,
2013-05-24 15:24:00,77.2,22.5,29.70,SE,145,10.0,14.0,13,0.00,,,0.00,WeatherCatV1.14B232,2013-05-24 21:24:00,
2013-05-24 15:29:00,76.9,22.3,29.70,WSW,255,5.0,8.0,13,0.00,,,0.00,WeatherCatV1.14B232,2013-05-24 21:29:00,
2013-05-24 15:34:00,77.1,22.5,29.70,West,271,5.0,12.0,13,0.00,,,0.00,WeatherCatV1.14B232,2013-05-24 21:34:00,
2013-05-24 15:39:00,77.3,24.4,29.69,WSW,253,7.0,9.0,14,0.00,,,0.00,WeatherCatV1.14B232,2013-05-24 21:39:00,
2013-05-24 15:44:00,77.2,22.5,29.69,SW,218,4.0,10.0,13,0.00,,,0.00,WeatherCatV1.14B232,2013-05-24 21:44:00,
2013-05-24 15:49:00,77.4,26.1,29.69,South,187,6.0,6.0,15,0.00,,,0.00,WeatherCatV1.14B232,2013-05-24 21:49:00,
2013-05-24 15:54:00,77.7,22.9,29.68,SSE,155,5.0,7.0,13,0.00,,,0.00,WeatherCatV1.14B232,2013-05-24 21:54:00,
2013-05-24 15:59:00,77.6,21.0,29.68,WSW,242,12.0,14.0,12,0.00,,,0.00,WeatherCatV1.14B232,2013-05-24 21:59:00,
2013-05-24 16:04:00,77.8,21.1,29.68,WSW,256,3.0,10.0,12,0.00,,,0.00,WeatherCatV1.14B232,2013-05-24 22:04:00,
2013-05-24 16:09:00,78.1,23.3,29.68,WNW,284,1.0,3.0,13,0.00,,,0.00,WeatherCatV1.14B232,2013-05-24 22:09:00,
2013-05-24 16:14:00,78.6,23.6,29.68,East,85,5.0,11.0,13,0.00,,,0.00,WeatherCatV1.14B232,2013-05-24 22:14:00,
2013-05-24 16:19:00,78.9,23.9,29.68,SSW,200,1.0,3.0,13,0.00,,,0.00,WeatherCatV1.14B232,2013-05-24 22:19:00,
2013-05-24 16:24:00,79.0,20.0,29.68,NE,47,4.0,10.0,11,0.00,,,0.00,WeatherCatV1.14B232,2013-05-24 22:24:00,
2013-05-24 16:29:00,78.5,17.4,29.69,SSW,201,14.0,18.0,10,0.00,,,0.00,WeatherCatV1.14B232,2013-05-24 22:29:00,
2013-05-24 16:34:00,78.1,17.1,29.68,West,271,8.0,11.0,10,0.00,,,0.00,WeatherCatV1.14B232,2013-05-24 22:34:00,
2013-05-24 16:39:00,78.4,19.5,29.68,WSW,242,5.0,10.0,11,0.00,,,0.00,WeatherCatV1.14B232,2013-05-24 22:39:00,
2013-05-24 16:44:00,78.3,19.5,29.67,South,173,4.0,8.0,11,0.00,,,0.00,WeatherCatV1.14B232,2013-05-24 22:44:00,
2013-05-24 16:49:00,77.8,16.9,29.68,South,191,2.0,7.0,10,0.00,,,0.00,WeatherCatV1.14B232,2013-05-24 22:49:00,
2013-05-24 16:54:00,77.2,18.6,29.69,SW,228,27.0,27.0,11,0.00,,,0.00,WeatherCatV1.14B232,2013-05-24 22:54:00,
2013-05-24 16:59:00,76.3,17.9,29.68,WSW,242,2.0,13.0,11,0.00,,,0.00,WeatherCatV1.14B232,2013-05-24 22:59:00,
2013-05-24 17:04:00,76.1,17.8,29.69,ENE,70,9.0,9.0,11,0.00,,,0.00,WeatherCatV1.14B232,2013-05-24 23:04:00,
2013-05-24 17:09:00,76.2,19.9,29.69,SW,215,9.0,10.0,12,0.00,,,0.00,WeatherCatV1.14B232,2013-05-24 23:09:00,
2013-05-24 17:14:00,76.1,19.8,29.69,NNW,328,0.0,3.0,12,0.00,,,0.00,WeatherCatV1.14B232,2013-05-24 23:14:00,
2013-05-24 17:19:00,76.2,17.9,29.69,West,259,4.0,5.0,11,0.00,,,0.00,WeatherCatV1.14B232,2013-05-24 23:19:00,
2013-05-24 17:24:00,76.2,19.9,29.68,SW,226,3.0,3.0,12,0.00,,,0.00,WeatherCatV1.14B232,2013-05-24 23:24:00,
2013-05-24 17:29:00,76.0,19.7,29.69,SSE,158,3.0,6.0,12,0.00,,,0.00,WeatherCatV1.14B232,2013-05-24 23:29:00,
2013-05-24 17:34:00,75.9,19.7,29.68,WSW,246,5.0,8.0,12,0.00,,,0.00,WeatherCatV1.14B232,2013-05-24 23:34:00,
2013-05-24 17:39:00,75.6,21.3,29.68,WSW,242,0.0,6.0,13,0.00,,,0.00,WeatherCatV1.14B232,2013-05-24 23:39:00,
2013-05-24 17:44:00,75.7,21.4,29.69,SSW,212,6.0,12.0,13,0.00,,,0.00,WeatherCatV1.14B232,2013-05-24 23:44:00,
2013-05-24 17:49:00,75.9,17.6,29.68,WNW,302,1.0,6.0,11,0.00,,,0.00,WeatherCatV1.14B232,2013-05-24 23:49:00,
2013-05-24 17:54:00,76.5,20.1,29.68,South,176,0.0,3.0,12,0.00,,,0.00,WeatherCatV1.14B232,2013-05-24 23:54:00,
2013-05-24 17:59:00,76.7,16.0,29.68,West,263,6.0,10.0,10,0.00,,,0.00,WeatherCatV1.14B232,2013-05-24 23:59:00,
2013-05-24 18:04:00,76.3,15.7,29.69,WSW,240,11.0,17.0,10,0.00,,,0.00,WeatherCatV1.14B232,2013-05-25 00:04:00,
2013-05-24 18:09:00,76.1,15.6,29.68,South,173,5.0,11.0,10,0.00,,,0.00,WeatherCatV1.14B232,2013-05-25 00:09:00,
2013-05-24 18:14:00,76.1,15.6,29.68,WSW,248,6.0,15.0,10,0.00,,,0.00,WeatherCatV1.14B232,2013-05-25 00:14:00,
2013-05-24 18:19:00,76.1,15.6,29.69,WSW,255,9.0,19.0,10,0.00,,,0.00,WeatherCatV1.14B232,2013-05-25 00:19:00,
2013-05-24 18:24:00,76.0,15.5,29.68,South,171,2.0,12.0,10,0.00,,,0.00,WeatherCatV1.14B232,2013-05-25 00:24:00,
2013-05-24 18:29:00,75.9,17.6,29.68,West,280,2.0,7.0,11,0.00,,,0.00,WeatherCatV1.14B232,2013-05-25 00:29:00,
2013-05-24 18:34:00,75.7,15.3,29.68,South,187,6.0,14.0,10,0.00,,,0.00,WeatherCatV1.14B232,2013-05-25 00:34:00,
2013-05-24 18:39:00,75.6,17.4,29.68,West,276,1.0,6.0,11,0.00,,,0.00,WeatherCatV1.14B232,2013-05-25 00:39:00,
2013-05-24 18:44:00,75.3,17.2,29.68,SSW,207,10.0,12.0,11,0.00,,,0.00,WeatherCatV1.14B232,2013-05-25 00:44:00,
2013-05-24 18:49:00,75.1,19.0,29.68,SSW,197,6.0,7.0,12,0.00,,,0.00,WeatherCatV1.14B232,2013-05-25 00:49:00,
2013-05-24 18:54:00,74.9,18.9,29.68,West,270,6.0,12.0,12,0.00,,,0.00,WeatherCatV1.14B232,2013-05-25 00:54:00,
2013-05-24 18:59:00,74.9,18.9,29.68,SSE,151,6.0,7.0,12,0.00,,,0.00,WeatherCatV1.14B232,2013-05-25 00:59:00,
2013-05-24 19:04:00,74.8,16.8,29.68,SW,221,9.0,14.0,11,0.00,,,0.00,WeatherCatV1.14B232,2013-05-25 01:04:00,
2013-05-24 19:09:00,74.5,18.6,29.69,SSW,212,3.0,4.0,12,0.00,,,0.00,WeatherCatV1.14B232,2013-05-25 01:09:00,
2013-05-24 19:14:00,74.3,16.4,29.69,SSE,160,2.0,6.0,11,0.00,,,0.00,WeatherCatV1.14B232,2013-05-25 01:14:00,
2013-05-24 19:19:00,74.2,16.3,29.69,NNW,332,1.0,11.0,11,0.00,,,0.00,WeatherCatV1.14B232,2013-05-25 01:19:00,
2013-05-24 19:24:00,74.1,18.3,29.69,West,269,1.0,6.0,12,0.00,,,0.00,WeatherCatV1.14B232,2013-05-25 01:24:00,
2013-05-24 19:29:00,73.8,19.9,29.69,SW,225,1.0,1.0,13,0.00,,,0.00,WeatherCatV1.14B232,2013-05-25 01:29:00,
2013-05-24 19:34:00,73.6,17.9,29.70,WSW,253,1.0,4.0,12,0.00,,,0.00,WeatherCatV1.14B232,2013-05-25 01:34:00,
2013-05-24 19:39:00,73.4,17.7,29.70,North,8,2.0,2.0,12,0.00,,,0.00,WeatherCatV1.14B232,2013-05-25 01:39:00,
2013-05-24 19:44:00,73.1,17.5,29.70,SSE,167,0.0,4.0,12,0.00,,,0.00,WeatherCatV1.14B232,2013-05-25 01:44:00,
2013-05-24 19:49:00,72.8,20.8,29.70,West,260,0.0,2.0,14,0.00,,,0.00,WeatherCatV1.14B232,2013-05-25 01:49:00,
2013-05-24 19:54:00,72.3,18.7,29.70,WSW,243,4.0,6.0,13,0.00,,,0.00,WeatherCatV1.14B232,2013-05-25 01:54:00,
2013-05-24 19:59:00,72.2,18.6,29.71,WSW,249,1.0,2.0,13,0.00,,,0.00,WeatherCatV1.14B232,2013-05-25 01:59:00,
2013-05-24 20:04:00,72.0,20.2,29.71,West,262,1.0,3.0,14,0.00,,,0.00,WeatherCatV1.14B232,2013-05-25 02:04:00,
2013-05-24 20:09:00,71.5,18.1,29.71,SW,235,0.0,5.0,13,0.00,,,0.00,WeatherCatV1.14B232,2013-05-25 02:09:00,
2013-05-24 20:14:00,71.4,19.7,29.71,WSW,258,4.0,5.0,14,0.00,,,0.00,WeatherCatV1.14B232,2013-05-25 02:14:00,
2013-05-24 20:19:00,71.1,17.8,29.71,WSW,250,6.0,7.0,13,0.00,,,0.00,WeatherCatV1.14B232,2013-05-25 02:19:00,
2013-05-24 20:24:00,70.7,19.2,29.71,WSW,257,2.0,4.0,14,0.00,,,0.00,WeatherCatV1.14B232,2013-05-25 02:24:00,
2013-05-24 20:29:00,70.1,17.0,29.72,West,264,2.0,2.0,13,0.00,,,0.00,WeatherCatV1.14B232,2013-05-25 02:29:00,
2013-05-24 20:34:00,69.9,18.5,29.72,WSW,252,2.0,4.0,14,0.00,,,0.00,WeatherCatV1.14B232,2013-05-25 02:34:00,
2013-05-24 20:39:00,69.1,19.5,29.72,West,262,1.0,2.0,15,0.00,,,0.00,WeatherCatV1.14B232,2013-05-25 02:39:00,
2013-05-24 20:44:00,67.7,24.0,29.72,West,279,2.0,2.0,19,0.00,,,0.00,WeatherCatV1.14B232,2013-05-25 02:44:00,
2013-05-24 20:49:00,66.5,21.7,29.72,WSW,250,2.0,2.0,18,0.00,,,0.00,WeatherCatV1.14B232,2013-05-25 02:49:00,
2013-05-24 20:54:00,65.6,23.5,29.72,WSW,255,1.0,1.0,20,0.00,,,0.00,WeatherCatV1.14B232,2013-05-25 02:54:00,
2013-05-24 20:59:00,64.7,22.7,29.73,ESE,105,1.0,1.0,20,0.00,,,0.00,WeatherCatV1.14B232,2013-05-25 02:59:00,
2013-05-24 21:04:00,63.7,24.1,29.73,WSW,256,1.0,2.0,22,0.00,,,0.00,WeatherCatV1.14B232,2013-05-25 03:04:00,
2013-05-24 21:09:00,63.0,22.5,29.74,SE,132,1.0,5.0,21,0.00,,,0.00,WeatherCatV1.14B232,2013-05-25 03:09:00,
2013-05-24 21:14:00,62.2,24.0,29.74,WSW,237,1.0,1.0,23,0.00,,,0.00,WeatherCatV1.14B232,2013-05-25 03:14:00,
2013-05-24 21:19:00,61.3,23.2,29.74,South,181,0.0,0.0,23,0.00,,,0.00,WeatherCatV1.14B232,2013-05-25 03:19:00,
2013-05-24 21:24:00,60.5,23.5,29.74,SSW,195,0.0,1.0,24,0.00,,,0.00,WeatherCatV1.14B232,2013-05-25 03:24:00,
2013-05-24 21:29:00,59.6,23.7,29.75,NE,50,0.0,0.0,25,0.00,,,0.00,WeatherCatV1.14B232,2013-05-25 03:29:00,
2013-05-24 21:34:00,58.9,25.0,29.75,NE,50,0.0,0.0,27,0.00,,,0.00,WeatherCatV1.14B232,2013-05-25 03:34:00,
2013-05-24 21:39:00,58.0,26.7,29.75,NE,50,0.0,0.0,30,0.00,,,0.00,WeatherCatV1.14B232,2013-05-25 03:39:00,
2013-05-24 21:44:00,57.3,23.6,29.75,SSE,150,0.0,0.0,27,0.00,,,0.00,WeatherCatV1.14B232,2013-05-25 03:44:00,
2013-05-24 21:49:00,56.8,26.5,29.76,SSE,162,0.0,1.0,31,0.00,,,0.00,WeatherCatV1.14B232,2013-05-25 03:49:00,
2013-05-24 21:54:00,56.3,29.0,29.76,South,172,0.0,1.0,35,0.00,,,0.00,WeatherCatV1.14B232,2013-05-25 03:54:00,
2013-05-24 21:59:00,55.8,31.2,29.76,SSE,153,0.0,2.0,39,0.00,,,0.00,WeatherCatV1.14B232,2013-05-25 03:59:00,
2013-05-24 22:01:00,55.5,31.6,29.76,SE,134,0.0,0.0,40,0.00,,,0.00,WeatherCatV1.14B232,2013-05-25 04:01:00,
2013-05-24 22:06:00,54.7,30.9,29.76,SE,134,0.0,0.0,40,0.00,,,0.00,WeatherCatV1.14B232,2013-05-25 04:06:00,
2013-05-24 22:11:00,54.1,25.6,29.76,SE,141,0.0,0.0,33,0.00,,,0.00,WeatherCatV1.14B232,2013-05-25 04:11:00,
2013-05-24 22:16:00,54.2,30.4,29.77,SSE,158,1.0,2.0,40,0.00,,,0.00,WeatherCatV1.14B232,2013-05-25 04:16:00,
2013-05-24 22:21:00,53.5,32.1,29.77,South,188,1.0,1.0,44,0.00,,,0.00,WeatherCatV1.14B232,2013-05-25 04:21:00,
2013-05-24 22:26:00,52.8,30.9,29.77,SSE,156,0.0,1.0,43,0.00,,,0.00,WeatherCatV1.14B232,2013-05-25 04:26:00,
2013-05-24 22:31:00,52.5,32.9,29.77,ESE,106,0.0,1.0,47,0.00,,,0.00,WeatherCatV1.14B232,2013-05-25 04:31:00,
2013-05-24 22:36:00,51.6,35.0,29.77,WSW,250,1.0,1.0,53,0.00,,,0.00,WeatherCatV1.14B232,2013-05-25 04:36:00,
2013-05-24 22:39:00,50.8,32.3,29.76,SSE,158,0.0,1.0,49,0.00,,,0.00,WeatherCatV1.14B232,2013-05-25 04:39:00,
2013-05-24 22:44:00,50.4,32.0,29.77,SSE,158,0.0,0.0,49,0.00,,,0.00,WeatherCatV1.14B232,2013-05-25 04:44:00,
2013-05-24 22:49:00,50.2,34.7,29.77,SSE,158,0.0,0.0,55,0.00,,,0.00,WeatherCatV1.14B232,2013-05-25 04:49:00,
2013-05-24 22:54:00,49.8,32.4,29.77,SSE,158,0.0,0.0,51,0.00,,,0.00,WeatherCatV1.14B232,2013-05-25 04:54:00,
2013-05-24 22:59:00,49.5,33.6,29.77,SSE,158,0.0,0.0,54,0.00,,,0.00,WeatherCatV1.14B232,2013-05-25 04:59:00,
2013-05-24 23:04:00,49.6,30.2,29.77,WNW,294,0.0,0.0,47,0.00,,,0.00,WeatherCatV1.14B232,2013-05-25 05:04:00,
2013-05-24 23:09:00,49.5,31.1,29.77,NW,318,0.0,0.0,49,0.00,,,0.00,WeatherCatV1.14B232,2013-05-25 05:09:00,
2013-05-24 23:14:00,49.2,29.8,29.77,North,358,0.0,0.0,47,0.00,,,0.00,WeatherCatV1.14B232,2013-05-25 05:14:00,
2013-05-24 23:19:00,48.8,30.0,29.77,WSW,239,0.0,0.0,48,0.00,,,0.00,WeatherCatV1.14B232,2013-05-25 05:19:00,
2013-05-24 23:24:00,48.0,33.9,29.77,SE,129,0.0,0.0,58,0.00,,,0.00,WeatherCatV1.14B232,2013-05-25 05:24:00,
2013-05-24 23:29:00,47.4,35.8,29.77,South,181,0.0,0.0,64,0.00,,,0.00,WeatherCatV1.14B232,2013-05-25 05:29:00,
2013-05-24 23:34:00,46.7,35.2,29.77,South,182,0.0,0.0,64,0.00,,,0.00,WeatherCatV1.14B232,2013-05-25 05:34:00,
2013-05-24 23:39:00,46.4,33.3,29.77,ESE,108,0.0,0.0,60,0.00,,,0.00,WeatherCatV1.14B232,2013-05-25 05:39:00,
2013-05-24 23:44:00,46.1,35.8,29.78,WSW,239,0.0,1.0,67,0.00,,,0.00,WeatherCatV1.14B232,2013-05-25 05:44:00,
2013-05-24 23:49:00,45.6,34.9,29.77,NNE,27,0.0,2.0,66,0.00,,,0.00,WeatherCatV1.14B232,2013-05-25 05:49:00,
2013-05-24 23:54:00,45.4,33.2,29.77,SSE,153,0.0,2.0,62,0.00,,,0.00,WeatherCatV1.14B232,2013-05-25 05:54:00,
2013-05-24 23:59:00,45.4,32.7,29.77,East,87,2.0,2.0,61,0.00,,,0.00,WeatherCatV1.14B232,2013-05-25 05:59:00,